This demonstration page uses our WeatherBlox Daily Observations layout. Learn more.

Left ArrowRight Arrow

Hourly Observations for February 9, 2016

Temp ( °F °C ) Dew Point ( °F °C ) Humidity (%) Winds ( mph kmh ) Pressure ( in mb ) Visibility ( mi km ) Precip ( " mm )
12:15 am 00:15 Clear 23 -5 -22 -30 12 12 WNW 9 15 30.33 1027 10 16 0.00 0.00
12:35 am 00:35 Clear 23 -5 -24 -31 11 11 WNW 9 15 30.30 1026 10 16 0.00 0.00
12:55 am 00:55 Clear 21 -6 -24 -31 12 12 WNW 12 19 30.33 1027 10 16 0.00 0.00
1:15 am 01:15 Clear 21 -6 -24 -31 12 12 WNW 7 11 30.33 1027 10 16 0.00 0.00
1:35 am 01:35 Clear 19 -7 -26 -32 12 12 WNW 9 15 30.36 1028 10 16 0.00 0.00
1:55 am 01:55 Clear 19 -7 -26 -32 12 12 WNW 7 11 30.30 1026 10 16 0.00 0.00
2:15 am 02:15 Clear 19 -7 -26 -32 12 12 WNW 8 13 30.30 1026 10 16 0.00 0.00
2:35 am 02:35 Clear 19 -7 -26 -32 12 12 NW 10 17 30.30 1026 10 16 0.00 0.00
2:55 am 02:55 Clear 25 -4 -22 -30 11 11 NW 10 17 30.30 1026 10 16 0.00 0.00
3:15 am 03:15 Mostly Clear 25 -4 -22 -30 11 11 NW 10 17 30.30 1026 10 16 0.00 0.00
3:35 am 03:35 Mostly Cloudy 25 -4 -20 -29 12 12 NW 10 17 30.30 1026 10 16 0.00 0.00
3:55 am 03:55 Cloudy 25 -4 -20 -29 12 12 NW 9 15 30.33 1027 10 16 0.00 0.00
4:15 am 04:15 Cloudy 27 -3 -20 -29 11 11 NNW 15 24 30.30 1026 10 16 0.00 0.00
4:35 am 04:35 Cloudy 27 -3 -18 -28 13 13 NNW 14 22 30.30 1026 10 16 0.00 0.00
4:55 am 04:55 Mostly Cloudy 27 -3 -18 -28 13 13 NNW 15 24 30.30 1026 10 16 0.00 0.00
5:15 am 05:15 Cloudy 27 -3 -18 -28 13 13 NNW 10 17 30.30 1026 10 16 0.00 0.00
5:35 am 05:35 Cloudy 27 -3 -20 -29 11 11 NNW 12 19 30.30 1026 10 16 0.00 0.00
5:55 am 05:55 Cloudy 27 -3 -20 -29 11 11 NNW 13 20 30.33 1027 10 16 0.00 0.00
6:15 am 06:15 Cloudy 27 -3 -20 -29 11 11 N 10 17 30.36 1028 10 16 0.00 0.00
6:35 am 06:35 Cloudy 27 -3 -20 -29 11 11 N 7 11 30.36 1028 10 16 0.00 0.00
6:55 am 06:55 Cloudy 27 -3 -20 -29 11 11 N 9 15 30.36 1028 10 16 0.00 0.00
7:15 am 07:15 Cloudy 27 -3 -20 -29 11 11 N 10 17 30.36 1028 10 16 0.00 0.00
7:35 am 07:35 Cloudy 27 -3 -20 -29 11 11 NNW 8 13 30.36 1028 10 16 0.00 0.00
7:55 am 07:55 Cloudy 27 -3 -20 -29 11 11 NNW 7 11 30.36 1028 10 16 0.00 0.00
8:15 am 08:15 Cloudy 27 -3 -20 -29 11 11 NNW 8 13 30.36 1028 10 16 0.00 0.00
8:35 am 08:35 Cloudy 27 -3 -20 -29 11 11 NNW 10 17 30.42 1030 10 16 0.00 0.00
8:55 am 08:55 Cloudy 27 -3 -20 -29 11 11 NNW 10 17 30.42 1030 10 16 0.00 0.00
9:15 am 09:15 Cloudy 27 -3 -20 -29 11 11 N 10 17 30.42 1030 10 16 0.00 0.00
9:35 am 09:35 Cloudy 27 -3 -20 -29 11 11 N 14 22 30.42 1030 10 16 0.00 0.00
9:55 am 09:55 Cloudy 27 -3 -20 -29 11 11 N 18 30 30.42 1030 10 16 0.00 0.00
10:15 am 10:15 Cloudy 27 -3 -20 -29 11 11 N 20 31 30.42 1030 10 16 0.00 0.00
10:35 am 10:35 Cloudy 27 -3 -20 -29 11 11 N 20 31 30.42 1030 10 16 0.00 0.00
10:55 am 10:55 Cloudy 27 -3 -20 -29 11 11 N 20 31 30.42 1030 10 16 0.00 0.00
11:15 am 11:15 Cloudy 27 -3 -20 -29 11 11 N 17 28 30.42 1030 10 16 0.00 0.00
11:35 am 11:35 Cloudy 27 -3 -20 -29 11 11 N 18 30 30.45 1031 10 16 0.00 0.00
11:55 am 11:55 Cloudy 27 -3 -20 -29 11 11 N 17 28 30.45 1031 10 16 0.00 0.00
12:15 pm 12:15 Cloudy 28 -2 -18 -28 12 12 N 15 24 30.42 1030 10 16 0.00 0.00
12:35 pm 12:35 Cloudy 27 -3 -18 -28 13 13 NNE 15 24 30.42 1030 10 16 0.00 0.00
12:55 pm 12:55 Cloudy 28 -2 -20 -29 11 11 N 14 22 30.39 1029 10 16 0.00 0.00
1:15 pm 13:15 Cloudy 28 -2 -18 -28 12 12 NNE 12 19 30.39 1029 10 16 0.00 0.00
1:35 pm 13:35 Cloudy 28 -2 -18 -28 12 12 N 12 19 30.39 1029 10 16 0.00 0.00
1:55 pm 13:55 Cloudy 28 -2 -18 -28 12 12 N 12 19 30.39 1029 10 16 0.00 0.00
2:15 pm 14:15 Cloudy 28 -2 -18 -28 12 12 NNW 7 11 30.39 1029 10 16 0.00 0.00
2:35 pm 14:35 Cloudy 30 -1 -18 -28 11 11 NNW 6 9 30.39 1029 10 16 0.00 0.00
2:55 pm 14:55 Cloudy 30 -1 -17 -27 12 12 NNW 7 11 30.39 1029 10 16 0.00 0.00
3:15 pm 15:15 Cloudy 30 -1 -18 -28 11 11 WNW 3 6 30.39 1029 10 16 0.00 0.00
3:35 pm 15:35 Cloudy 30 -1 -17 -27 12 12 Calm 30.36 1028 10 16 0.00 0.00
3:55 pm 15:55 Cloudy 30 -1 -17 -27 12 12 WNW 5 7 30.39 1029 10 16 0.00 0.00
4:15 pm 16:15 Cloudy 30 -1 -17 -27 12 12 NW 3 6 30.39 1029 10 16 0.00 0.00
4:35 pm 16:35 Cloudy 30 -1 -17 -27 12 12 Calm 30.39 1029 10 16 0.00 0.00
4:55 pm 16:55 Cloudy 30 -1 -17 -27 12 12 Calm 30.39 1029 10 16 0.00 0.00
5:15 pm 17:15 Cloudy 30 -1 -17 -27 12 12 Calm 30.36 1028 10 16 0.00 0.00
5:35 pm 17:35 Cloudy 28 -2 -18 -28 12 12 S 5 7 30.36 1028 10 16 0.00 0.00
5:55 pm 17:55 Cloudy 28 -2 -18 -28 12 12 S 6 9 30.36 1028 10 16 0.00 0.00
6:15 pm 18:15 Cloudy 27 -3 -18 -28 13 13 S 8 13 30.36 1028 10 16 0.00 0.00
6:35 pm 18:35 Cloudy 27 -3 -20 -29 11 11 SSW 8 13 30.33 1027 10 16 0.00 0.00
6:55 pm 18:55 Cloudy 27 -3 -20 -29 11 11 SSW 9 15 30.36 1028 10 16 0.00 0.00
7:15 pm 19:15 Cloudy 27 -3 -20 -29 11 11 SSW 9 15 30.36 1028 10 16 0.00 0.00
7:35 pm 19:35 Cloudy 27 -3 -20 -29 11 11 SSW 12 19 30.33 1027 10 16 0.00 0.00
7:55 pm 19:55 Cloudy 27 -3 -20 -29 11 11 SSW 12 19 30.30 1026 10 16 0.00 0.00
8:15 pm 20:15 Cloudy 27 -3 -20 -29 11 11 SSW 12 19 30.33 1027 10 16 0.00 0.00
8:35 pm 20:35 Cloudy 27 -3 -20 -29 11 11 SSW 10 17 30.30 1026 10 16 0.00 0.00
8:55 pm 20:55 Cloudy 27 -3 -20 -29 11 11 SW 13 20 30.30 1026 10 16 0.00 0.00
9:15 pm 21:15 Cloudy 27 -3 -20 -29 11 11 SSW 16 26 30.30 1026 10 16 0.00 0.00
9:35 pm 21:35 Cloudy 27 -3 -18 -28 13 13 SW 17 28 30.27 1025 10 16 0.00 0.00
9:55 pm 21:55 Cloudy 27 -3 -18 -28 13 13 SW 16 26 30.27 1025 10 16 0.00 0.00
10:15 pm 22:15 Cloudy 27 -3 -18 -28 13 13 SW 15 24 30.27 1025 10 16 0.00 0.00
10:35 pm 22:35 Cloudy 28 -2 -18 -28 12 12 SW 17 28 30.27 1025 10 16 0.00 0.00
10:55 pm 22:55 Cloudy 28 -2 -18 -28 12 12 SW 16 26 30.24 1024 10 16 0.00 0.00
11:15 pm 23:15 Cloudy 28 -2 -18 -28 12 12 SW 16 26 30.24 1024 10 16 0.00 0.00
11:35 pm 23:35 Cloudy 28 -2 -18 -28 12 12 SW 16 26 30.24 1024 10 16 0.00 0.00
11:55 pm 23:55 Cloudy 28 -2 -18 -28 12 12 SW 14 22 30.24 1024 10 16 0.00 0.00

Powered by AerisWeather